Probability
2 3 3 2 2 1 0 1 3 5 6 6 6 6 6 4 3 1 0 0 0 0 0 1 1 1 2 4 4 4 4 4 4 4 3 4 5 4 3 1 0 0 1
2 3 2 2 1 1 0 0 2 5 6 6 6 6 6 4 3 2 1 0 1 1 2 3 3 3 4 5 6 6 6 6 6 4 3 3 4 4 2 1 1 1 1
3 3 3 2 2 2 1 1 1 3 5 7 7 7 7 5 4 4 3 2 3 4 4 5 5 6 6 7 7 7 7 8 8 6 4 3 4 4 3 2 3 2 2
5 5 5 5 5 5 3 2 1 2 5 7 9 10 10 9 7 7 7 7 7 7 6 6 6 7 8 8 8 8 8 9 9 8 7 5 5 5 4 5 5 4 3
9 9 9 9 8 8 8 7 5 4 6 8 10 12 13 12 10 9 10 10 11 10 9 8 8 7 7 7 7 7 7 7 8 9 9 8 8 8 7 6 6 4 4
13 13 13 11 10 12 14 14 12 10 10 10 11 13 16 15 11 7 8 11 14 14 12 11 10 8 6 5 4 3 3 5 6 7 8 9 9 8 7 7 6 5 4
14 15 15 13 12 13 16 18 17 14 11 11 13 14 16 14 9 5 6 12 16 16 14 12 10 7 6 5 4 3 3 3 3 5 6 7 7 8 9 8 7 5 4
14 15 17 17 15 13 15 17 18 15 11 10 12 14 14 12 8 4 6 12 17 17 14 12 9 7 5 5 5 5 5 4 2 2 3 4 6 7 8 9 7 5 3
14 16 18 19 17 15 15 17 18 14 10 9 11 12 13 12 9 5 5 12 17 16 13 10 8 6 4 3 4 6 7 6 3 1 1 2 2 3 4 5 5 4 3
14 15 16 17 16 16 17 18 17 14 11 10 11 12 14 15 12 6 5 12 17 17 13 11 8 6 3 1 2 4 5 4 4 4 3 2 1 0 1 1 3 4 5
14 13 14 14 15 14 15 16 16 14 13 12 12 12 14 14 12 6 5 10 16 16 14 12 10 5 2 0 0 1 1 2 3 4 5 4 3 2 1 1 2 3 4
14 13 14 14 14 12 12 14 15 15 14 13 13 13 13 13 11 7 3 6 11 14 13 12 9 4 1 0 0 0 0 0 1 2 4 5 5 5 3 2 2 2 2
13 13 14 14 12 12 12 14 15 15 15 13 12 12 12 12 11 7 3 3 5 8 10 8 5 3 1 0 0 0 0 0 0 0 2 4 6 6 5 4 3 2 2
10 10 11 11 10 11 13 14 14 14 14 12 10 10 11 11 9 6 4 3 3 5 5 4 2 2 1 1 2 2 1 1 1 1 0 2 4 6 5 5 5 4 4
6 7 8 9 10 11 12 12 11 11 11 9 7 8 9 9 7 5 3 3 3 4 3 3 2 2 2 3 4 4 3 3 3 3 1 2 4 5 5 5 6 5 5
6 7 7 8 9 10 10 8 7 6 6 5 5 5 6 6 5 3 1 1 1 2 2 3 4 3 3 4 5 5 4 4 5 5 4 4 5 6 6 6 6 5 4
8 8 8 8 7 6 6 5 5 4 3 4 3 2 2 2 2 1 0 0 0 0 1 3 4 4 5 6 7 6 5 4 4 5 5 6 6 7 6 6 5 4 3
9 9 9 8 6 5 4 5 6 5 5 5 3 1 0 0 0 0 0 0 1 1 3 4 4 5 6 7 8 7 5 4 3 4 4 5 5 6 6 5 4 4 3
8 9 9 9 7 5 5 5 6 6 5 4 4 2 1 0 1 1 0 1 2 3 5 5 4 5 5 6 6 5 4 3 2 2 3 3 2 3 4 4 4 3 2
7 7 8 8 7 5 4 4 4 4 4 3 3 3 2 2 2 2 1 1 2 3 5 5 3 3 3 4 3 2 1 1 1 1 1 1 0 1 1 2 1 1 1
6 6 7 7 6 5 4 4 3 3 3 3 3 3 2 2 2 2 1 1 1 1 3 3 1 1 2 2 1 0 0 0 0 0 0 0 0 0 0 0 0 0 0
6 6 6 6 6 5 5 4 4 3 3 3 3 3 1 1 1 1 0 0 0 0 1 1 0 0 1 1 0 0 0 0 0 0 0 0 0 0 0 0 0 0 0
6 6 6 5 4 3 3 3 3 2 2 2 2 2 1 0 0 0 0 0 0 0 0 0 0 0 0 0 0 0 0 0 0 0 0 0 0 0 0 0 0 0 0
3 3 3 3 1 1 1 1 1 1 1 1 1 1 0 0 0 0 0 0 0 0 0 0 0 0 0 0 0 0 0 0 0 0 0 0 0 0 0 0 0 0 0
1 1 1 1 0 0 0 0 0 0 0 0 0 0 0 0 0 0 0 0 0 0 0 0 0 0 0 0 0 0 0 0 0 0 0 0 0 0 0 0 0 0 0
0 0 0 0 0 0 0 0 0 0 0 0 0 0 0 0 0 0 0 0 0 0 0 0 0 0 0 0 0 0 0 0 0 0 0 0 0 0 0 0 0 0 0
Wind_Speed
4 3 3 3 3 3 3 3 3 2 2 3 2 2 2 2 2 2 2 2 2 2 2 2 3 2 2 1 2 2 2 2 2 2 2 2 2 2 2 1 2 2 2
4 3 3 2 2 3 3 3 3 3 3 3 2 2 2 2 2 3 3 3 3 3 3 2 3 1 1 1 1 2 2 2 2 3 2 2 2 2 2 2 2 2 2
4 3 3 3 3 3 3 3 3 3 2 2 2 3 3 3 3 3 3 3 3 3 3 3 3 2 2 1 1 2 2 2 2 2 2 2 2 1 1 1 2 2 2
5 5 4 4 4 4 3 2 3 2 2 2 3 3 3 3 3 3 3 3 3 2 2 2 3 3 3 2 2 2 1 1 1 1 1 2 2 1 1 1 2 1 2
5 5 5 4 4 3 3 3 3 2 3 3 2 2 2 2 2 3 3 3 2 2 1 2 2 2 2 2 2 2 2 1 1 1 1 1 1 1 1 1 2 2 2
4 4 3 3 3 4 4 3 2 2 2 2 2 2 2 2 2 3 3 2 2 2 2 2 2 1 1 1 1 2 3 3 2 2 2 2 2 2 2 2 1 1 2
4 3 3 3 3 3 3 3 3 3 2 3 3 2 3 3 2 3 4 3 2 2 2 1 1 1 0 0 1 1 1 1 3 3 2 3 3 2 2 2 2 2 2
3 3 3 3 3 3 2 3 3 2 2 2 2 2 2 2 1 3 4 3 2 1 1 1 1 1 0 1 1 1 0 0 2 2 2 2 2 2 2 2 2 1 2
3 3 3 3 4 3 3 2 2 1 1 1 1 1 2 2 1 3 3 2 1 1 1 1 1 1 1 1 2 1 0 1 1 1 1 1 1 1 1 1 1 1 2
4 4 4 4 4 4 3 2 2 2 1 1 1 1 2 2 2 3 4 2 2 1 1 1 2 2 1 2 2 2 1 2 1 1 1 2 2 1 1 2 2 2 2
3 3 4 4 4 4 3 2 2 2 2 1 0 1 1 2 1 2 4 3 3 2 1 1 1 2 2 2 2 2 3 2 0 0 1 1 1 1 1 1 2 2 2
2 3 3 3 4 4 4 3 2 3 2 1 1 1 1 1 1 2 3 3 3 3 2 2 1 2 2 2 2 1 1 1 1 0 0 1 1 2 2 2 2 2 2
2 2 2 2 3 4 4 4 3 2 2 2 1 1 1 1 1 1 2 3 3 2 2 1 1 2 2 2 1 2 2 1 1 1 1 1 1 2 2 1 2 1 2
3 2 2 3 3 3 3 3 3 3 3 2 2 2 1 1 1 1 1 1 2 1 1 0 1 1 1 1 1 1 1 1 1 1 1 1 1 1 1 1 1 1 1
3 3 3 3 3 3 2 1 2 3 4 4 3 3 3 3 3 3 2 2 2 1 1 1 1 1 1 0 0 0 0 1 1 1 1 1 1 1 1 1 1 1 1
3 2 2 2 2 2 2 1 2 0 1 3 4 4 3 4 4 3 3 2 2 3 3 1 1 1 1 1 1 1 0 1 1 1 1 1 1 1 1 1 1 1 1
3 2 2 2 2 3 3 3 1 2 4 2 1 2 2 2 3 3 3 2 2 4 2 1 1 1 1 1 2 1 1 1 1 1 1 1 1 1 1 1 1 1 2
3 3 2 2 2 2 2 2 2 2 1 1 2 1 1 2 2 3 4 4 2 1 1 1 2 2 2 2 2 2 1 1 1 1 1 1 1 1 1 1 1 2 2
3 2 2 2 2 2 2 2 2 2 1 1 1 1 1 2 2 3 3 2 2 2 2 2 2 2 2 2 2 1 1 1 1 1 1 1 1 1 1 2 2 2 2
2 3 3 2 2 2 2 2 2 2 2 1 1 1 0 1 1 0 1 1 1 2 2 2 2 2 2 2 1 1 1 1 1 1 1 1 1 1 2 2 2 2 2
1 2 3 2 2 2 3 3 3 2 2 2 2 2 3 2 2 2 2 2 2 2 2 2 2 2 2 1 1 1 2 1 1 1 1 1 1 1 2 2 3 3 3
2 2 2 2 2 2 2 2 3 2 3 3 2 1 3 2 2 2 2 2 2 2 2 2 2 2 2 2 2 1 1 1 1 1 1 1 1 2 2 2 3 3 3
2 2 2 1 2 2 2 2 2 2 2 2 2 2 2 2 3 2 2 2 1 1 1 2 1 1 1 1 1 2 2 2 2 2 2 2 2 2 2 2 3 3 3
2 3 2 2 2 2 2 1 1 2 2 2 2 2 2 2 2 2 2 1 1 1 1 1 1 2 1 1 1 1 1 1 1 1 2 2 2 2 2 2 3 4 4
3 3 2 2 2 2 2 1 1 1 1 1 1 2 2 2 2 2 1 1 1 1 1 1 1 1 1 1 1 1 0 1 1 1 1 2 2 2 2 3 3 3 4
2 2 2 2 2 2 2 2 1 1 1 1 1 1 2 2 2 2 1 1 1 1 0 0 0 1 0 0 1 0 1 1 1 1 1 2 2 2 2 2 4 4 4
Wind_Direction
202 204 206 203 198 194 199 211 215 222 216 214 215 207 212 216 209 196 214 211 213 233 242 237 258 257 233 217 193 184 196 197 239 279 274 278 268 270 296 282 265 262 265
186 179 198 206 194 198 209 216 212 217 220 212 205 206 215 223 214 205 218 221 217 226 236 233 249 242 225 209 187 196 205 204 212 260 284 291 273 262 272 273 280 276 275
169 174 198 210 209 218 222 218 215 216 218 205 191 211 222 224 218 218 216 221 221 222 224 227 235 222 238 234 211 216 219 214 209 226 275 286 279 282 289 287 286 289 279
174 181 194 215 220 223 220 215 221 215 209 215 215 222 227 224 215 219 216 219 222 231 234 236 233 225 225 219 217 216 207 204 204 212 267 293 282 283 254 272 293 292 293
181 193 206 214 213 214 213 215 219 216 222 219 214 220 230 225 226 221 215 213 214 228 240 246 240 229 215 206 215 207 190 197 201 211 251 286 292 279 254 249 262 287 281
181 202 202 194 204 210 209 203 204 218 223 215 213 213 222 237 242 201 191 201 199 204 234 259 245 220 224 194 186 183 181 189 204 212 241 252 264 254 252 234 225 253 274
190 199 192 189 198 208 206 192 203 216 211 216 222 214 228 250 234 196 186 181 183 198 213 234 247 261 181 193 168 152 154 189 192 196 214 246 250 242 232 244 226 227 246
192 202 203 199 205 202 190 200 209 203 209 223 230 227 232 263 229 198 183 177 168 191 204 210 212 260 254 166 159 111 26 272 225 202 212 242 249 236 213 224 242 258 273
194 197 198 201 203 193 191 209 210 181 208 238 243 234 231 262 225 190 172 165 158 214 229 212 203 216 250 127 134 149 325 317 296 170 217 261 273 276 177 148 173 232 273
201 197 192 193 196 192 191 193 177 165 194 204 270 264 240 253 242 185 173 165 171 208 232 232 213 196 172 152 161 173 227 280 324 12 10 343 324 312 221 205 219 227 244
196 182 182 190 190 184 177 175 166 167 160 156 182 288 280 268 253 185 169 173 187 191 211 245 244 190 173 178 180 202 228 227 255 335 345 347 346 326 300 267 244 229 228
177 175 180 181 177 165 161 170 167 164 160 174 185 308 315 301 260 213 178 184 184 180 207 224 221 174 167 173 188 221 195 162 151 114 355 327 321 315 308 296 280 257 247
161 177 178 168 167 165 166 169 167 170 173 191 200 231 291 313 299 241 193 189 195 194 216 216 190 169 169 164 179 179 164 158 161 170 254 285 299 309 318 318 320 289 276
172 181 175 166 164 160 165 171 174 184 188 196 207 222 249 272 283 255 205 187 177 173 196 91 96 120 124 131 120 167 188 192 192 208 253 289 325 338 331 325 325 328 319
179 183 175 172 166 157 149 168 188 204 197 195 211 211 210 230 243 225 189 189 190 176 134 98 80 98 104 119 170 170 163 168 209 249 261 293 316 316 311 314 314 325 311
175 183 174 168 159 152 144 87 47 145 183 198 206 208 225 220 205 192 180 167 155 142 130 146 174 191 215 220 225 240 213 212 230 222 235 261 280 288 306 322 328 308 299
173 175 167 168 170 166 166 160 141 42 51 64 118 177 196 183 165 160 146 123 120 131 134 179 199 219 237 240 228 233 240 234 221 215 230 254 275 287 300 314 322 316 306
161 162 163 172 172 168 172 169 163 159 108 31 21 52 118 147 152 142 125 103 90 113 185 213 223 228 234 238 235 235 242 232 222 233 243 259 269 283 296 298 294 295 297
157 161 160 160 159 157 156 154 156 160 157 143 39 13 42 98 114 129 134 139 190 224 233 233 235 236 239 237 236 232 228 223 227 236 255 268 270 271 280 286 283 284 280
139 158 159 154 155 153 157 163 170 173 183 200 212 222 145 94 95 158 199 201 212 235 244 244 244 238 236 233 225 213 215 223 234 249 261 270 272 265 264 271 276 278 274
158 164 165 164 173 178 181 187 190 190 202 219 231 226 198 193 203 213 223 220 222 230 230 240 246 236 232 230 225 218 216 228 235 249 258 267 273 277 273 269 271 270 275
169 172 173 179 187 190 191 192 193 196 207 222 240 231 206 209 212 217 223 232 238 240 234 225 227 225 216 214 217 217 224 236 255 276 287 286 279 269 267 267 272 278 280
161 165 167 174 186 187 191 193 199 203 209 219 224 222 214 219 223 225 230 235 239 236 219 206 207 221 226 221 219 208 215 231 239 237 248 266 276 278 274 273 277 284 283
154 164 174 179 176 178 192 202 213 216 215 219 225 225 222 221 223 230 236 235 232 238 208 190 192 203 209 207 208 210 233 248 247 235 236 249 265 277 280 284 286 289 291
153 159 170 174 173 176 182 192 198 204 209 206 215 222 226 218 214 220 225 220 216 226 213 179 189 202 205 216 231 235 214 220 240 254 239 238 250 261 269 279 284 287 288
152 155 160 158 162 171 178 191 205 207 204 208 218 217 215 215 218 218 210 201 201 202 232 141 183 209 223 245 266 283 199 225 256 264 252 248 257 268 276 275 279 279 280